Location: Moscow
(55.7500°N, 37.5830°E)
Time: 07:11:22
(UTC+03:00)

Transit 2A - Pass Details

Date: 04 December 2021
Orbit: 591 x 967 km, 66.7° (Epoch: 17 January)

Event Time Altitude Azimuth Distance (km) Brightness Sun altitude
Exits shadow 06:57:47 14° 319° (NW) 2,443 8.1 -13.1°
Maximum altitude 07:03:08 45° 29° (NNE) 1,291 7.2 -12.4°
Drops below altitude 10° 07:09:13 10° 101° (E) 2,685 10.3 -11.6°
Sets 07:11:52 0° 108° (ESE) 3,603 11.6 -11.3°
